STARLINK-11601, 63110

Orbit data source: Space-Track

STARLINK-11601, 63110 is a payload satellite owned by SpaceX/Seattle (US) in LEO that was launched on Thu, 27 Feb 2025 UTC via an FALCON 9 launch vehicle from the Air Force Eastern Test Range (AFETR). Payload-class satellites include a variety of spacecraft equipped with specific instruments for various scientific and technological missions. These include communications satellites like Starlink; space stations such as the ISS; scientific satellites like the Hubble; Earth observation satellites from companies like Planet Labs, Umbra, and HawkEye 360; GPS; miniature CubeSats for education and research; and military/defense satellites.

Loading next visibility...
Identifier
63110, 2025-039G
Orbit
LEO
Last TLE update
13 hours ago
Origin
Manufacturer
SpaceX/Seattle
Mission
Operational Commercial Communications
Bus & Motor
STARLINK V2M, Unknown motor
Mass
730 kg wet, ~700 kg dry
Launch date (UTC)
2025-02-27 (4 months ago)
Launch vehicle
FALCON 9
Launch site
Air Force Eastern Test Range (AFETR)
Object type
Payload
Rocket body
Debris
Shape & HBR
Box + 2 Pan, 29 m
Radar Cross Section
36.964 m², Large (>1 m²)

Expand to show TLE details & history

TLE from 13 hours ago
0 STARLINK-11601
1 63110U 25039G   25183.73206415  .00150353  00000-0  11505-2 0  9998
2 63110  43.0031 303.5067 0003579 278.0613  81.9849 15.70911050 20302
Epoch: 2025-07-02T17:34Z
TLE epoch observation values (Epoch: 2025-07-02T17:34:10.342Z)
Latitude
0.00001°
Longitude
118.95467°
Altitude
355.728 km
Speed
7.698 km/s
True Right ascension
20h 14m 01s
True Declination
0° 00' 00"
Sunlit
Object was in full shadow at epoch
Visualization orbit readout
Latitude
39.55567°
Longitude
-125.95593°
Altitude
360.544 km
Speed
7.697 km/s
Apparent Right ascension
04h 55m 31s
Apparent Declination
1° 10' 18"
Sunlit
Object is in daylight
Visualization observer readout
Local Sidereal Time
18:00:33
Azimuth
23.902° NE
Elevation
-46.306°
Doppler factor
1
Orbital elements
Apogee altitude
360.684 km
Perigee altitude
355.862 km
Semi-major axis
6,736.41 km
Eccentricity
0.00036
Inclination
43.0031°
RAAN
303.5067°
Arg. of periapsis
278.0613°
True anomaly
Unknown
Mean anomaly
81.9849°
Eccentric anomaly
Unknown
Mean motion
3.92555 °/min
Orbital period
91.71 mins
BSTAR
0.0011505
Loading maneuver chart data...
Loading SW <> Apogee altitude chart data...
Loading historical data...
Loading historical data...
Loading historical data...
Loading historical data...
Loading historical data...
Loading historical data...
Loading historical data...

STARLINK-11601 Visibility forecast

Observer location: undefined°, undefined°

Span
Click to sort rows by Start time (UTC) header in descending order
Start Az.
Max El. time (UTC)
Max El. Az.
Max El.
End time (UTC)
End Az.
4 mins2025-07-03 13:44:54.466Z299.111° NW2025-07-03 13:45:54.466Z339.508° N34.25°2025-07-03 13:48:54.466Z70.547° E
4 mins2025-07-03 15:20:54.466Z297.499° NW2025-07-03 15:22:54.466Z62.881° ENE38.754°2025-07-03 15:24:54.466Z95.217° ESE
4 mins2025-07-03 16:56:54.466Z256.992° W2025-07-03 16:58:54.466Z190.077° SSW24.075°2025-07-03 17:00:54.466Z148.861° SSE
|